When you browse on this site, cookies collect data to enhance your experience and personalize the content and advertising you see.
Visit our Privacy Policy to learn more. By continuing to use the site, you agree to this use of cookies and data.
  • In Hungary
  • List of Countries
  • For 7 days
  • Water Temperature
  • Weather Map
  • News
  • Weather Widgets
  • user-avatar
    Login

    Hourly Weather Siavonga

    Today, 15 December, Sunday

    Time Temperature Precipitation Wind Pressure Humidity
    00:00 +26°C° 0 mm 1 mps 715 mmHg 79%
    01:00 +25°C° 0 mm 1 mps 715 mmHg 81%
    02:00 +25°C° 0 mm 1 mps 714 mmHg 83%
    03:00 +25°C° 0 mm 1 mps 714 mmHg 83%
    04:00 +25°C° 0 mm 1 mps 715 mmHg 83%
    05:00 +24°C° 0 mm 1 mps 715 mmHg 84%
    06:00 +26°C° 0 mm 1 mps 715 mmHg 78%
    07:00 +27°C° 0 mm 1 mps 715 mmHg 72%
    08:00 +29°C° 0 mm 1 mps 716 mmHg 67%
    09:00 +30°C° 0 mm 1 mps 716 mmHg 62%
    10:00 +31°C° 0 mm 1 mps 715 mmHg 57%
    11:00 +32°C° 0 mm 2 mps 715 mmHg 53%
    12:00 +34°C° 0 mm 1 mps 715 mmHg 48%
    13:00 +35°C° 0 mm 1 mps 714 mmHg 44%
    14:00 +36°C° 0 mm 1 mps 713 mmHg 40%
    15:00 +36°C° 0 mm 1 mps 713 mmHg 41%
    16:00 +35°C° 0 mm 1 mps 713 mmHg 43%
    17:00 +34°C° 0 mm 1 mps 712 mmHg 44%
    18:00 +33°C° 0 mm 1 mps 712 mmHg 51%
    19:00 +31°C° 0 mm 1 mps 713 mmHg 57%
    20:00 +29°C° 0 mm 2 mps 713 mmHg 64%
    21:00 +28°C° 0 mm 1 mps 713 mmHg 65%
    22:00 +28°C° 0 mm 1 mps 713 mmHg 66%
    23:00 +27°C° 0 mm 1 mps 713 mmHg 67%

    Tomorrow, 16 December, Monday

    Time Temperature Precipitation Wind Pressure Humidity
    00:00 +27°C° 0 mm 1 mps 713 mmHg 68%
    01:00 +27°C° 0 mm 1 mps 713 mmHg 68%
    02:00 +26°C° 0 mm 1 mps 712 mmHg 69%
    03:00 +26°C° 0 mm 1 mps 712 mmHg 71%
    04:00 +26°C° 0 mm 1 mps 713 mmHg 72%
    05:00 +25°C° 0 mm 1 mps 713 mmHg 73%
    06:00 +27°C° 0 mm 1 mps 713 mmHg 67%
    07:00 +30°C° 0 mm 1 mps 714 mmHg 60%
    08:00 +32°C° 0 mm 1 mps 714 mmHg 54%
    09:00 +33°C° 0 mm 1 mps 714 mmHg 49%
    10:00 +36°C° 0 mm 2 mps 714 mmHg 43%
    11:00 +38°C° 0 mm 2 mps 714 mmHg 38%
    12:00 +38°C° 0 mm 2 mps 713 mmHg 36%
    13:00 +38°C° 0 mm 2 mps 713 mmHg 35%
    14:00 +38°C° 0 mm 2 mps 712 mmHg 34%
    15:00 +38°C° 0 mm 3 mps 712 mmHg 34%
    16:00 +37°C° 0 mm 3 mps 712 mmHg 34%
    17:00 +37°C° 0 mm 3 mps 712 mmHg 35%
    18:00 +35°C° 0 mm 2 mps 712 mmHg 40%
    19:00 +32°C° 0 mm 2 mps 712 mmHg 45%
    20:00 +30°C° 0 mm 1 mps 713 mmHg 50%
    21:00 +29°C° 0 mm 1 mps 713 mmHg 53%
    22:00 +28°C° 0 mm 1 mps 714 mmHg 55%
    23:00 +28°C° 0 mm 1 mps 714 mmHg 58%

    Day after tomorrow, 17 December, Tuesday

    Time Temperature Precipitation Wind Pressure Humidity
    00:00 +27°C° 0 mm 1 mps 714 mmHg 59%
    01:00 +27°C° 0 mm 1 mps 714 mmHg 60%
    02:00 +27°C° 0 mm 2 mps 714 mmHg 61%
    03:00 +26°C° 0 mm 2 mps 714 mmHg 65%
    04:00 +26°C° 0 mm 2 mps 714 mmHg 69%
    05:00 +25°C° 0 mm 3 mps 715 mmHg 73%
    06:00 +26°C° 0 mm 3 mps 715 mmHg 70%
    07:00 +27°C° 0 mm 4 mps 715 mmHg 67%
    08:00 +28°C° 0 mm 4 mps 716 mmHg 64%
    09:00 +29°C° 0 mm 4 mps 716 mmHg 61%
    10:00 +30°C° 0 mm 4 mps 716 mmHg 58%
    11:00 +32°C° 0 mm 4 mps 716 mmHg 54%
    12:00 +33°C° 0 mm 3 mps 715 mmHg 50%
    13:00 +34°C° 0 mm 3 mps 714 mmHg 47%
    14:00 +35°C° 0 mm 3 mps 714 mmHg 43%
    15:00 +35°C° 0 mm 3 mps 713 mmHg 43%
    16:00 +35°C° 0 mm 2 mps 713 mmHg 43%
    17:00 +34°C° 0 mm 2 mps 713 mmHg 43%
    18:00 +32°C° 0 mm 2 mps 713 mmHg 48%
    19:00 +30°C° 0 mm 1 mps 713 mmHg 53%
    20:00 +29°C° 0 mm 1 mps 713 mmHg 58%
    21:00 +28°C° 0 mm 1 mps 714 mmHg 60%
    22:00 +27°C° 0 mm 1 mps 714 mmHg 62%
    23:00 +26°C° 0 mm 1 mps 714 mmHg 65%

    18 December, Wednesday

    Time Temperature Precipitation Wind Pressure Humidity
    00:00 +26°C° 0 mm 1 mps 714 mmHg 66%
    01:00 +25°C° 0 mm 1 mps 714 mmHg 67%
    02:00 +25°C° 0 mm 1 mps 713 mmHg 69%
    03:00 +25°C° 0 mm 1 mps 714 mmHg 71%
    04:00 +24°C° 0 mm 2 mps 714 mmHg 73%
    05:00 +24°C° 0 mm 2 mps 714 mmHg 75%
    06:00 +25°C° 0 mm 2 mps 714 mmHg 71%
    07:00 +27°C° 0 mm 3 mps 715 mmHg 68%
    08:00 +28°C° 0 mm 4 mps 715 mmHg 65%
    09:00 +30°C° 0 mm 3 mps 715 mmHg 58%
    10:00 +33°C° 0 mm 3 mps 715 mmHg 51%
    11:00 +35°C° 0 mm 3 mps 715 mmHg 44%
    12:00 +36°C° 0 mm 3 mps 714 mmHg 40%
    13:00 +37°C° 0 mm 3 mps 713 mmHg 36%
    14:00 +38°C° 0 mm 2 mps 713 mmHg 33%
    15:00 +38°C° 0 mm 2 mps 712 mmHg 32%
    16:00 +37°C° 0 mm 2 mps 712 mmHg 31%
    17:00 +36°C° 0 mm 1 mps 711 mmHg 31%
    18:00 +34°C° 0 mm 1 mps 711 mmHg 36%
    19:00 +31°C° 0 mm 1 mps 711 mmHg 42%
    20:00 +29°C° 0 mm 1 mps 711 mmHg 47%
    21:00 +28°C° 0 mm 1 mps 712 mmHg 49%
    22:00 +28°C° 0 mm 1 mps 712 mmHg 51%
    23:00 +27°C° 0 mm 1 mps 712 mmHg 53%

    19 December, Thursday

    Time Temperature Precipitation Wind Pressure Humidity
    00:00 +27°C° 0 mm 1 mps 712 mmHg 54%
    01:00 +26°C° 0 mm 1 mps 712 mmHg 56%
    02:00 +26°C° 0 mm 1 mps 712 mmHg 57%
    03:00 +25°C° 0 mm 1 mps 712 mmHg 59%
    04:00 +25°C° 0 mm 1 mps 712 mmHg 61%
    05:00 +24°C° 0 mm 2 mps 713 mmHg 63%
    06:00 +26°C° 0 mm 2 mps 713 mmHg 58%
    07:00 +28°C° 0 mm 2 mps 714 mmHg 53%
    08:00 +30°C° 0 mm 2 mps 715 mmHg 48%
    09:00 +34°C° 0 mm 2 mps 714 mmHg 42%
    10:00 +36°C° 0 mm 2 mps 714 mmHg 37%
    11:00 +38°C° 0 mm 2 mps 714 mmHg 32%
    12:00 +39°C° 0 mm 2 mps 713 mmHg 30%
    13:00 +40°C° 0 mm 2 mps 712 mmHg 27%
    14:00 +42°C° 0 mm 2 mps 711 mmHg 25%
    15:00 +41°C° 0 mm 2 mps 711 mmHg 26%
    16:00 +39°C° 0 mm 2 mps 710 mmHg 28%
    17:00 +38°C° 0 mm 2 mps 710 mmHg 29%
    18:00 +36°C° 0 mm 2 mps 710 mmHg 33%
    19:00 +34°C° 0 mm 2 mps 710 mmHg 38%
    20:00 +31°C° 0 mm 1 mps 710 mmHg 42%
    21:00 +30°C° 0 mm 1 mps 711 mmHg 43%
    22:00 +30°C° 0 mm 1 mps 711 mmHg 45%
    23:00 +29°C° 0 mm 2 mps 712 mmHg 46%

    20 December, Friday

    Time Temperature Precipitation Wind Pressure Humidity
    00:00 +28°C° 0 mm 2 mps 712 mmHg 48%
    01:00 +28°C° 0 mm 1 mps 711 mmHg 51%
    02:00 +27°C° 0 mm 1 mps 711 mmHg 53%
    03:00 +27°C° 0 mm 1 mps 711 mmHg 54%
    04:00 +26°C° 0 mm 1 mps 712 mmHg 56%
    05:00 +26°C° 0 mm 1 mps 712 mmHg 57%
    06:00 +28°C° 0 mm 1 mps 712 mmHg 52%
    07:00 +30°C° 0 mm 1 mps 713 mmHg 48%
    08:00 +32°C° 0 mm 1 mps 714 mmHg 43%
    09:00 +35°C° 0 mm 1 mps 714 mmHg 38%
    10:00 +39°C° 0 mm 1 mps 714 mmHg 33%
    11:00 +42°C° 0 mm 1 mps 714 mmHg 27%
    12:00 +42°C° 0 mm 2 mps 713 mmHg 26%
    13:00 +42°C° 0 mm 2 mps 712 mmHg 25%
    14:00 +43°C° 0 mm 3 mps 711 mmHg 24%
    15:00 +41°C° 0 mm 2 mps 711 mmHg 25%
    16:00 +40°C° 0 mm 2 mps 710 mmHg 26%
    17:00 +40°C° 0 mm 1 mps 710 mmHg 27%
    18:00 +36°C° 0 mm 1 mps 710 mmHg 31%
    19:00 +34°C° 0 mm 1 mps 710 mmHg 35%
    20:00 +32°C° 0 mm 1 mps 710 mmHg 39%
    21:00 +31°C° 0 mm 1 mps 710 mmHg 41%
    22:00 +30°C° 0 mm 1 mps 711 mmHg 43%
    23:00 +30°C° 0 mm 1 mps 712 mmHg 44%
    Show more